Location: Vesunti
(61.5000°N, 22.8333°E)
Time: 04:42:36
(UTC+00:00)

NOSS 2-2 (D) - Pass Details

Date: 17 February 2020
Orbit: 480 x 1729 km, 63.3° (Epoch: 26 March)

Event Time Altitude Azimuth Distance (km) Brightness Sun altitude
Exits shadow 02:34:58 74° 303° (WNW) 803 3.9 -25.6°
Maximum altitude 02:35:27 86° 19° (NNE) 793 3.9 -25.6°
Drops below altitude 10° 02:41:48 10° 109° (ESE) 2,782 7.5 -24.9°
Sets 02:44:51 0° 110° (ESE) 3,948 8.4 -24.5°
